Regional Weather Roundup
Issued by NWS

Home | Current Version | Previous Version | Graphics & Text | Print | Product List | Glossary On
Versions: 1 2 3 4 5 6 7 8 9 10 11 12 13 14 15 16 17 18 19 20 21 22 23 24 25 26 27 28 29 30 31 32 33 34 35 36 37 38 39 40 41 42 43 44 45 46 47 48 49 50
000
ASUS43 KBIS 201610
RWRND

NORTH DAKOTA REGIONAL WEATHER ROUNDUP
NATIONAL WEATHER SERVICE BISMARCK ND
1000 AM CST MON FEB 20 2017

NOTE: "FAIR" INDICATES FEW OR NO CLOUDS BELOW 12,000 FEET WITH NO
SIGNIFICANT WEATHER AND/OR OBSTRUCTIONS TO VISIBILITY.


NDZ001>003-009>011-017-201700-
NORTHWEST NORTH DAKOTA

CITY           SKY/WX    TMP DP  RH WIND       PRES   REMARKS
WILLISTON      PTSUNNY   36  32  85 SE6       29.72F
MINOT          CLOUDY    35  33  92 W10       29.68S FOG
MINOT AFB      CLOUDY    33  32  96 NW8       29.67F FOG
$$

NDZ018>021-031>035-040>046-201700-
SOUTHWEST NORTH DAKOTA

CITY           SKY/WX    TMP DP  RH WIND       PRES   REMARKS
BISMARCK       CLOUDY    38  35  89 NW7       29.71F FOG
DICKINSON      PTSUNNY   43  35  73 W16       29.71S
GARRISON         N/A     34  32  92 W13       29.71R
HETTINGER ARPT MOSUNNY   44  35  70 W13       29.76R
$$

NDZ004>008-012>016-024-026-027-054-201700-
NORTHEAST NORTH DAKOTA

CITY           SKY/WX    TMP DP  RH WIND       PRES   REMARKS
GRAND FORKS    FOG       40  37  89 SW8       29.60S VSB 1/4
GRND FRKS AFB  FOG       39  39 100 CALM      29.59F VSB 1/4
DEVILS LAKE    LGT RAIN  34  34 100 W15       29.65R FOG
$$

NDZ022-023-025-028>030-036>039-047>053-201700-
SOUTHEAST NORTH DAKOTA

CITY           SKY/WX    TMP DP  RH WIND       PRES   REMARKS
FARGO          LGT RAIN  50  49  96 SE13      29.62S FOG
JAMESTOWN      CLOUDY    35  33  92 NW10      29.65S
$$





USA.gov is the U.S. government's official web portal to all federal, state and local government web resources and services.